Location: ??????
(55.7522°N, 37.6156°E)
Time: 18:12:04
(UTC+00:00)

ARIANE 5 R/B - Pass Details

Date: 14 June 2025
Orbit: 615 x 647 km, 98.0° (Epoch: 10 July)

Event Time Altitude Azimuth Distance (km) Brightness Sun altitude
Exits shadow 20:43:27 13° 186° (S) 1,835 4.4 -10.3°
Maximum altitude 20:47:15 50° 260° (W) 825 3.2 -10.4°
Drops below altitude 10° 20:51:37 10° 336° (NNW) 2,057 6.6 -10.5°
Sets 20:53:55 0° 342° (NNW) 2,975 8.1 -10.6°
